CZ-6A DEB, 56647

Orbit data source: Space-Track

CZ-6A DEB, 56647 is space debris in SSO originally from a launch on Fri, 11 Nov 2022 UTC launched from the Taiyaun Space Center, China (TSC). Debris objects in space refer to the collection of defunct objects orbiting the Earth. Examples of debris include non-operational satellites, rocket bodies, and fragments generated from explosions, collisions, or faulty payload assembly.

Loading next visibility...
Identifier
56647, 2022-151AFX
Orbit
SSO
Country
Flag of CNCN / PRC
Related business
Manufacturer
SAST
Mission
Spacecraft
Bus & Motor
Unknown
Mass
Unknown
Launch date (UTC)
2022-11-11 (3 years ago)
Launch vehicle
Unknown
Launch site
Taiyaun Space Center, China (TSC)
Object type
Payload
Rocket body
Debris
Shape & HBR
Unknown shape, 0.1 m
Radar Cross Section
Small (<0.1 m²)

Expand to show TLE details & history
Last TLE update: 15 hours ago

TLE from 15 hours ago
0 CZ-6A DEB
1 56647U 22151AFX 25349.77490221  .00001747  00000-0  87366-3 0  9996
2 56647  98.8143 353.4408 0038679 119.0195 241.4864 14.17661422145248
Epoch: 2025-12-15T18:35Z
TLE epoch observation values (Epoch: 2025-12-15T18:35:51.550Z)
Latitude
-0.00008°
Longitude
-10.19261°
Altitude
849.582 km
Speed
7.421 km/s
True Right ascension
23h 33m 45s
True Declination
0° 00' 00"
Sunlit
Object was in daylight at epoch
Visualization orbit readout
Latitude
Unknown
Longitude
Unknown
Altitude
Unknown
Speed
Unknown
Apparent Right ascension
Unknown
Apparent Declination
Unknown
Sunlit
N/A
Visualization observer readout
Local Sidereal Time
08:22:01
Azimuth
Unknown
Elevation
Unknown
Doppler factor
Unknown
Orbital elements
Apogee altitude
858.321 km
Perigee altitude
802.557 km
Semi-major axis
7,208.576 km
Eccentricity
0.00387
Inclination
98.8143°
RAAN
353.4408°
Arg. of periapsis
119.0195°
True anomaly
241.09783°
Mean anomaly
241.4864°
Eccentric anomaly
241.29203°
Mean motion
3.54625 °/min
Orbital period
101.52 mins
BSTAR
0.00087366
Loading maneuver chart data...
Computing Atmospheric mass density...
Loading historical data...
Loading historical data...
Loading historical data...
Loading historical data...
Loading historical data...
Loading historical data...
Loading historical data...

Documentation

Showing up to 5 results
|